Weather History for New River MCAS, NC

Change the Weather History Date:

Tuesday, June 26, 2012

  Actual Average Record
Temperature  
Mean Temperature 72 °F -  
Max Temperature 77 °F 85 °F 96 °F (1997)
Min Temperature 66 °F 68 °F 66 °F (2012)
Cooling Degree Days 6    
Growing Degree Days 22 (Base 50)    
Moisture  
Dew Point 61 °F    
Average Humidity 72    
Maximum Humidity 100    
Minimum Humidity 43    
Precipitation  
Precipitation 0.71 in - - ()
Sea Level Pressure  
Sea Level Pressure 29.82 in    
Wind  
Wind Speed 9 mph (NNE)    
Max Wind Speed 21 mph    
Max Gust Speed 29 mph    
Visibility 9 miles    
Events Rain , Thunderstorm    
Averages and records for this station are not official NWS values.
T = Trace of Precipitation, MM = Missing Value Source: NWS Daily Summary

Daily Weather History Graph

Daily Weather History Graph

Search for Another Location

Airport:

Trip Planner

Search our weather history database for the weather conditions in past years. The results will help you decide how hot, cold, wet, or windy it might be!

Date:

Astronomy

Jun. 26, 2012 Rise Set
Actual Time 5:58 AM EDT 8:26 PM EDT
Civil Twilight 5:28 AM EDT 8:56 PM EDT
Nautical Twilight 4:52 AM EDT 9:32 PM EDT
Astronomical Twilight 4:12 AM EDT 10:13 PM EDT
Moon 12:53 PM EDT (6/26) 12:11 AM EDT (6/26)
Length of Visible Light 15h 27m
Length of Day
14h 28m
Waxing Crescent, 45% of the Moon is Illuminated
Jun 26
Waxing Crescent
Jun 26
First Quarter
Jul 3
Full
Jul 10
Last Quarter
Jul 19
New

Hourly Weather History & Observations

Time (EDT) Temp. Dew Point Humidity Pressure Visibility Wind Dir Wind Speed Gust Speed Precip Events Conditions
12:18 AM 73.4 °F 71.6 °F 94% 29.77 in 10.0 mi Variable 3.5 mph - N/A Thunderstorm Thunderstorm
12:37 AM 73.4 °F 66.2 °F 78% 29.80 in 10.0 mi North 20.7 mph 28.8 mph N/A Thunderstorm Thunderstorm
12:47 AM 73.4 °F 66.2 °F 78% 29.81 in 10.0 mi North 15.0 mph 27.6 mph N/A Thunderstorm Thunderstorm
12:56 AM 72.0 °F 68.0 °F 87% 29.83 in 5.0 mi Variable 5.8 mph - 0.05 in Rain , Thunderstorm Thunderstorms and Rain
1:08 AM 69.8 °F 69.8 °F 100% 29.80 in 2.5 mi North 6.9 mph - 0.13 in Rain , Thunderstorm Heavy Thunderstorms and Rain
1:20 AM 69.8 °F 69.8 °F 100% 29.79 in 5.0 mi SSE 3.5 mph - 0.16 in Rain , Thunderstorm Light Thunderstorms and Rain
1:35 AM 69.8 °F 69.8 °F 100% 29.79 in 1.8 mi NW 9.2 mph - 0.31 in Rain Heavy Rain
1:56 AM 70.0 °F 68.0 °F 93% 29.78 in 2.5 mi West 3.5 mph - 0.51 in Rain Rain
2:07 AM 69.8 °F 68.0 °F 94% 29.77 in 1.8 mi Calm Calm - 0.09 in Rain Heavy Rain
2:20 AM 69.8 °F 68.0 °F 94% 29.75 in 3.0 mi NW 12.7 mph - 0.15 in Rain Heavy Rain
2:56 AM 70.0 °F 68.0 °F 93% 29.75 in 10.0 mi NNW 10.4 mph - 0.15 in Rain Light Rain
3:35 AM 69.8 °F 68.0 °F 94% 29.73 in 10.0 mi NNE 5.8 mph - 0.00 in   Scattered Clouds
3:56 AM 70.0 °F 68.0 °F 93% 29.74 in 10.0 mi North 12.7 mph - 0.00 in   Mostly Cloudy
4:42 AM 69.8 °F 66.2 °F 88% 29.74 in 10.0 mi North 9.2 mph - N/A   Partly Cloudy
4:56 AM 69.1 °F 66.0 °F 90% 29.75 in 10.0 mi North 6.9 mph - N/A   Clear
5:56 AM 69.1 °F 64.9 °F 87% 29.81 in 10.0 mi North 5.8 mph - N/A   Mostly Cloudy
6:56 AM 68.0 °F 63.0 °F 84% 29.83 in 10.0 mi NNE 8.1 mph - N/A   Clear
7:56 AM 66.9 °F 59.0 °F 76% 29.83 in 10.0 mi NNE 12.7 mph 19.6 mph N/A   Clear
8:25 AM 66.2 °F 57.2 °F 73% 29.84 in 10.0 mi NNE 11.5 mph 20.7 mph N/A   Mostly Cloudy
8:56 AM 68.0 °F 55.0 °F 63% 29.86 in 10.0 mi NNE 17.3 mph 25.3 mph N/A   Mostly Cloudy
9:56 AM 70.0 °F 54.0 °F 57% 29.87 in 10.0 mi NNE 19.6 mph 24.2 mph N/A   Mostly Cloudy
10:56 AM 72.0 °F 55.0 °F 55% 29.88 in 10.0 mi NNE 11.5 mph 19.6 mph N/A   Mostly Cloudy
11:05 AM 73.4 °F 55.4 °F 53% 29.87 in 10.0 mi NNE 10.4 mph - N/A   Mostly Cloudy
11:56 AM 73.0 °F 54.0 °F 51% 29.87 in 10.0 mi North 15.0 mph - N/A   Mostly Cloudy
12:56 PM 75.0 °F 53.1 °F 46% 29.87 in 10.0 mi NE 9.2 mph - N/A   Mostly Cloudy
1:56 PM 75.9 °F 52.0 °F 43% 29.86 in 10.0 mi NE 10.4 mph - N/A   Clear
2:56 PM 77.0 °F 53.1 °F 43% 29.85 in 10.0 mi North 6.9 mph 17.3 mph N/A   Clear
3:56 PM 77.0 °F 54.0 °F 45% 29.85 in 10.0 mi NE 9.2 mph 18.4 mph N/A   Clear
4:56 PM 75.9 °F 54.0 °F 46% 29.85 in 10.0 mi NNE 11.5 mph - N/A   Clear
5:56 PM 73.9 °F 52.0 °F 46% 29.84 in 10.0 mi NE 10.4 mph - N/A   Clear
6:56 PM 73.0 °F 54.0 °F 51% 29.84 in 10.0 mi NE 6.9 mph - N/A   Clear
7:56 PM 71.1 °F 53.1 °F 53% 29.84 in 10.0 mi NNE 8.1 mph - N/A   Clear
8:56 PM 69.1 °F 54.0 °F 58% 29.86 in 10.0 mi NNE 9.2 mph - N/A   Clear
9:56 PM 66.9 °F 53.1 °F 61% 29.88 in 10.0 mi NNE 5.8 mph - N/A   Clear
10:56 PM 66.9 °F 53.1 °F 61% 29.89 in 10.0 mi ENE 6.9 mph - N/A   Clear
11:56 PM 66.9 °F 54.0 °F 63% 29.89 in 10.0 mi East 6.9 mph - N/A   Clear